Location: Newark
(20.1720°N, 90.0102°W)
Time: 19:37:27
(UTC+00:00)

Envisat - Pass Details

Date: 26 August 2019
Orbit: 764 x 766 km, 98.1° (Epoch: 23 September)

Event Time Altitude Azimuth Distance (km) Brightness Sun altitude
Rises 01:21:42 0° 198° (SSW) 3,219 6.2 -14.5°
Reaches altitude 10° 01:24:31 10° 214° (SW) 2,295 5.7 -15.2°
Maximum altitude 01:28:16 21° 262° (W) 1,669 5.6 -16.0°
Drops below altitude 10° 01:32:01 10° 310° (NW) 2,299 6.5 -16.8°
Sets 01:34:53 0° 327° (NNW) 3,227 7.1 -17.5°
